Simultaneous Nadir Overpasses (SNOs) Predictions

Prediction of SNOs between GOES-15 and TERRA Satellite Orbit:

Table of predicted SNOs for the next 14.0 days since TLE Epoch: 9/16/2013
Index Date Time (GOES-15) GOES-15 Lat,Lon TERRA Lat,Lon Distance(km) Time Diff (sec)
1 09/16/2013 07:37:10 0.39,-135.49 0.17,-136.49 113.61 80
2 09/18/2013 07:22:18 0.39,-135.48 0.82,-133.53 222.02 80
3 09/18/2013 19:43:33 -0.40,-135.48 0.29,-138.68 364.50 80
4 09/20/2013 19:31:21 -0.39,-135.47 -0.36,-135.73 29.13 80
5 09/22/2013 19:21:48 -0.39,-135.46 -0.96,-132.76 305.89 80
6 09/23/2013 07:43:12 0.40,-135.45 -0.14,-137.96 284.71 80
7 09/25/2013 07:28:19 0.39,-135.43 0.46,-134.99 49.56 80
8 09/27/2013 07:16:06 0.39,-135.40 1.07,-132.03 383.23 80
9 09/27/2013 19:37:21
